User: anonymous   Login
Location: CNYAC Observatory
(43.2150°N, 74.9500°W)
Time: 07:50:38
(UTC-05:00)
Language:

Cosmos 1300 Rocket - Orbit

View from above orbital plane
View from above orbital plane
View from above satellite
View from above satellite

Ground track
Ground track

The orbit data is extracted from the following two-line orbital elements,

1 12786U 81082B   16040.17421072  .00000224  00000-0  23626-4 0  9999
2 12786  82.4865  73.2822 0019212  86.0978 274.2434 14.84580275861517
Epoch (UTC): 09 February 2016 04:10:51
Eccentricity: 0.0019212
inclination: 82.4865°
perigee height: 601 km
apogee height: 628 km
right ascension of ascending node: 73.2822°
argument of perigee: 86.0978°
revolutions per day: 14.84580275
mean anomaly at epoch: 274.2434°
orbit number at epoch: 86151

The dashed part of the orbit path shows where the satellite is in the earth's shadow,  

DLR